This demonstration page uses our WeatherBlox Daily Observations layout. Learn more.

Left ArrowRight Arrow

39.95238, -75.16362

Hourly Observations for December 2, 2022

Temp ( °F °C ) Dew Point ( °F °C ) Humidity (%) Winds ( mph kmh ) Pressure ( in mb ) Visibility ( mi km ) Precip ( " mm )
12:54 am 00:54 Clear 33 0.6 20 -6.7 58 58 W 7 11 30.53 1034 10 16 0.00 0.00
1:54 am 01:54 Clear 32 0 20 -6.7 61 61 NW 5 7 30.52 1034 10 16 0.00 0.00
2:54 am 02:54 Clear 31 -0.6 20 -6.7 63 63 NW 6 9 30.52 1034 10 16 0.00 0.00
3:54 am 03:54 Clear 30 -1.1 20 -6.7 66 66 NNW 6 9 30.52 1034 10 16 0.00 0.00
4:54 am 04:54 Clear 28 -2.2 20 -6.7 71 71 N 3 6 30.54 1034 10 16 0.00 0.00
5:54 am 05:54 Clear 28 -2.2 19 -7.2 68 68 N 3 6 30.55 1035 10 16 0.00 0.00
6:54 am 06:54 Clear 29 -1.7 20 -6.7 69 69 Calm 30.56 1035 10 16 0.00 0.00
7:54 am 07:54 Mostly Sunny 30 -1.1 21 -6.1 69 69 Calm 30.57 1035 10 16 0.00 0.00
8:54 am 08:54 Mostly Sunny 35 1.7 22 -5.6 58 58 Calm 30.58 1035 10 16 0.00 0.00
9:54 am 09:54 Mostly Sunny 37 2.8 23 -5 56 56 SW 3 6 30.58 1036 10 16 0.00 0.00
10:54 am 10:54 Partly Cloudy 40 4.4 22 -5.6 48 48 SSW 7 11 30.56 1035 10 16 0.00 0.00
11:54 am 11:54 Partly Cloudy 42 5.6 23 -5 46 46 SW 7 11 30.54 1034 10 16 0.00 0.00
12:54 pm 12:54 Mostly Sunny 44 6.7 24 -4.4 45 45 S 5 7 30.51 1033 10 16 0.00 0.00
1:54 pm 13:54 Partly Cloudy 46 7.8 24 -4.4 42 42 S 3 6 30.50 1033 10 16 0.00 0.00
2:54 pm 14:54 Partly Cloudy 46 7.8 26 -3.3 45 45 S 8 13 30.48 1032 10 16 0.00 0.00
3:54 pm 15:54 Partly Cloudy 45 7.2 27 -2.8 49 49 S 8 13 30.47 1032 10 16 0.00 0.00
4:54 pm 16:54 Partly Cloudy 44 6.7 27 -2.8 51 51 SSW 7 11 30.48 1032 10 16 0.00 0.00
5:54 pm 17:54 Partly Cloudy 43 6.1 27 -2.8 53 53 SE 5 7 30.48 1032 10 16 0.00 0.00
6:54 pm 18:54 Mostly Cloudy 42 5.6 27 -2.8 55 55 SE 3 6 30.47 1032 10 16 0.00 0.00
7:54 pm 19:54 Mostly Cloudy 42 5.6 29 -1.7 59 59 SSE 6 9 30.44 1031 10 16 0.00 0.00
8:54 pm 20:54 Cloudy 43 6.1 31 -0.6 62 62 S 6 9 30.43 1031 10 16 0.00 0.00
9:54 pm 21:54 Mostly Cloudy 44 6.7 33 0.6 65 65 S 3 6 30.42 1030 10 16 0.00 0.00
10:54 pm 22:54 Mostly Cloudy 43 6.1 34 1.1 70 70 ESE 3 6 30.40 1029 10 16 0.00 0.00
11:54 pm 23:54 Cloudy 45 7.2 35 1.7 68 68 SSE 3 6 30.38 1029 10 16 0.00 0.00

Powered by AerisWeather